Regional Weather Roundup
Issued by NWS Bismarck, ND

Home | Current Version | Previous Version | Text Only | Print | Product List | Glossary On
Versions: 1 2 3 4 5 6 7 8 9 10 11 12 13 14 15 16 17 18 19 20 21 22 23 24 25 26 27 28 29 30 31 32 33 34 35 36 37 38 39 40 41 42 43 44 45 46 47 48 49 50
000
ASUS43 KBIS 100110
RWRBIS

NWR BROADCAST TEXT
NATIONAL WEATHER SERVICE BISMARCK ND
700 PM CST FRI DEC 09 2016

NOTE: "FAIR" INDICATES FEW OR NO CLOUDS BELOW 12,000 FEET WITH NO
SIGNIFICANT WEATHER AND/OR OBSTRUCTIONS TO VISIBILITY.


CITY           SKY/WX    TMP DP  RH WIND       PRES   REMARKS
WILLISTON      CLOUDY   -12 -16  82 CALM      30.50F
MINOT          CLOUDY   -10 -16  74 W8        30.51F WCI -26
MINOT AFB      CLOUDY   -18 -24  74 W6        30.51F WCI -33
BISMARCK       PTCLDY    -7 -12  79 NW3       30.54S
DICKINSON      CLOUDY    -9 -16  71 CALM      30.39F
GARRISON         N/A    -12 -17  78 NW8       30.49F WCI -29
HETTINGER ARPT CLOUDY    -7 -12  79 CALM      30.41F
JAMESTOWN      CLEAR    -10 -16  74 NW13      30.51F WCI -30
CARRINGTON     FAIR     -13 -18  77 W10       30.53F WCI -32
HAZEN          CLOUDY    -8 -13  77 S3        30.54S
RUGBY            N/A    -17 -22  76 NW6       30.52F WCI -31
STANLEY        FAIR     -17 -20  83 CALM      30.47F
TIOGA          FAIR     -13 -17  84 W6        30.46F WCI -27
WATFORD CITY   FAIR     -13 -18  77 CALM      30.48F
$$

CITY           SKY/WX    TMP DP  RH WIND       PRES   REMARKS
GRAND FORKS    MOCLDY    -9 -14  78 NW5       30.57R WCI -20
GRAND FORKS AF CLOUDY    -4 -11  71 N7        30.56S WCI -18
DEVILS LAKE    CLEAR    -11 -15  82 NW12      30.52S WCI -31
FARGO          MOCLDY     0  -7  72 NW9       30.57R WCI -15
CANDO          FAIR     -11 -17  77 NW8       30.54F WCI -28
CAVALIER       FLURRIES   0  -8  71 NW8       30.56F WCI -15
GRAFTON        CLOUDY    -4  -9  77 NW8       30.59S WCI -19
GWINNER        FAIR       0  -6  78 NW10      30.54S WCI -17
LANGDON        CLOUDY    -8 -13  77 NW12      30.49R WCI -27
ROLLA          FAIR     -17 -20  83 NW6       30.48F WCI -31
WALHALLA         N/A     -2  -2 100 NW13      30.56S WCI -21
$$

CITY           SKY/WX    TMP DP  RH WIND       PRES   REMARKS
ABERDEEN       CLEAR      1  -7  68 N8        30.55S WCI -13
MOBRIDGE       CLOUDY    -1  -8  72 NW7       30.49S WCI -14
BUFFALO          N/A     -4  -8  83 E10       30.25F WCI -21
RAPID CITY     CLOUDY     1  -4  79 E7        30.33F WCI -12
GLASGOW        CLOUDY    -4  -9  79 E8        30.40S WCI -19
SIDNEY         CLOUDY   -10 -15  78 S3        30.50S
WOLF POINT     CLOUDY    -8 -14  74 E6        30.48S WCI -21
GLENDIVE       CLOUDY    -7 -11  83 E8        30.41F WCI -23
MILES CITY     CLOUDY     4  -3  73 E8        30.33F WCI  -9
BAKER          CLOUDY    -1  -6  79 E10       30.34F WCI -17
$$

CITY           SKY/WX    TMP DP  RH WIND       PRES   REMARKS
BILLINGS       CLOUDY     5   1  83 MISG      30.16F
GREAT FALLS    CLOUDY    -5  -8  87 N6        30.12F WCI -18
REGINA         PTCLDY   -11 -15  84 SW2       30.48F
ESTEVAN        PTCLDY   -18 -24  76 W8        30.49F WCI -37
$$





USA.gov is the U.S. government's official web portal to all federal, state and local government web resources and services.